Location: Framecourt
(50.3294°N, 2.3059°E)
Time: 09:31:23
(UTC+00:00)

Daily predictions for brighter satellites

Satellite Brightness Start Highest point End
(mag) Time Altitude Azimuth Time Altitude Azimuth Time Altitude Azimuth
ATLAS 2AS CENTAUR R/B 3.8 16:25:48 10° NW 16:31:32 27° N 16:37:12 10° ENE
Cosmos 1844 Rocket 3.8 16:29:03 10° WSW 16:34:16 40° NW 16:39:32 10° NNE
UNK 4.4 16:30:31 10° NNE 16:34:47 35° E 16:39:00 10° SSE
DNEPR-1 R/B 4.4 16:31:33 10° NW 16:35:56 61° SW 16:40:58 10° SSE
Cosmos 1459 Rocket 4.2 16:29:46 10° S 16:36:05 84° W 16:42:30 10° N
YAOGAN 1 4.3 16:34:39 10° E 16:36:28 13° NE 16:38:18 10° NNE
COSMOS 2406 4.4 16:36:26 10° NNW 16:40:49 22° NE 16:45:11 10° E
Cosmos 2084 Rocket 3.4 16:37:26 10° SW 16:41:36 74° SE 16:45:49 10° NE
Cosmos 2100 Rocket 4.4 16:37:38 10° SSW 16:43:47 69° WNW 16:49:56 10° N
ATLAS CENTAUR R/B 2.3 16:40:59 10° WSW 16:44:07 32° NW 16:47:16 10° NNE
Cosmos 1441 Rocket 3.3 16:42:16 10° NNW 16:45:36 68° W 16:48:56 10° S
Cosmos 2221 Rocket 4.4 16:41:49 10° NNW 16:46:13 57° W 16:50:33 10° S
Cosmos 1833 Rocket 3.0 16:40:44 10° NNW 16:46:24 77° WSW 16:52:02 10° SSE
SAR-Lupe-4 3.9 16:43:18 10° SE 16:46:43 43° ENE 16:50:08 10° N
ARIANE 5 R/B 2.6 16:42:36 10° SE 16:47:24 50° ENE 16:52:14 10° N
Timation 1 Rocket 4.4 16:48:53 10° NNW 16:54:46 57° NE 17:00:38 10° SE
USA 215 3.4 16:48:23 10° SE 16:54:57 80° SSW 17:01:32 10° WNW
IRS-P3 4.4 16:53:07 10° SE 16:58:11 47° ENE 17:03:18 10° N
ATLAS 5 CENTAUR R/B 2.5 16:55:56 10° NW 17:00:10 56° SW 17:05:25 10° SSE
MOS 1 Rocket 3.7 16:56:25 10° SE 17:00:20 34° ENE 17:04:25 10° N
Cosmos 1484 Rocket 4.1 17:01:01 10° S 17:04:19 40° W 17:07:41 10° NNW
Iridium 4 Rocket 4.2 17:01:38 10° SSW 17:06:32 52° W 17:11:03 10° N
Resurs 01 Rocket 3.5 17:08:58 12° NE 17:08:58 12° NE 17:10:07 10° NNE
Cosmos 2233 Rocket 4.0 17:02:34 10° S 17:08:52 84° E 17:15:15 10° N
RESURS DK-1 2.2 17:04:57 10° NNW 17:08:58 65° ENE 17:12:56 10° SE
Cosmos 1602 4.2 17:06:41 10° NNE 17:09:15 24° ENE 17:11:49 10° SE
Cosmos 407 Rocket 3.8 17:04:58 10° S 17:09:52 45° ESE 17:14:45 10° NE
Cosmos 1725 Rocket 4.4 17:03:39 10° SSW 17:09:54 71° WNW 17:16:15 10° N
Cosmos 2061 Rocket 4.0 17:05:06 10° S 17:11:23 79° E 17:17:38 10° NNE
ISS -2.8 17:12:08 10° SW 17:15:14 35° SSE 17:17:12 18° E
Geosat FO 4.4 17:12:40 10° SE 17:15:23 41° NE 17:18:08 10° NNW
Cosmos 1782 Rocket 3.7 17:11:12 10° SSW 17:15:38 80° W 17:20:05 10° N
CZ-2D R/B 2.6 17:13:24 10° SSE 17:16:32 78° E 17:19:43 10° N
Cosmos 1869 3.2 17:14:00 10° S 17:17:23 46° E 17:20:46 10° NNE
ERS-1 4.4 17:13:26 10° SSE 17:18:34 76° ENE 17:23:40 10° NNW
USA 281 4.3 17:15:06 14° E 17:19:00 24° NE 17:24:01 10° NNW
SPOT 1/Viking Rocket 3.9 17:14:31 10° SE 17:19:21 42° ENE 17:24:15 10° N
Cosmos 1300 Rocket 4.0 17:15:28 10° SSW 17:19:50 66° WNW 17:24:12 10° N
COSMO-SKYMED 1 3.7 17:21:26 19° ENE 17:22:21 20° E 17:25:27 10° SE
SJ-12 3.7 17:19:34 10° SSE 17:23:21 89° ENE 17:27:11 10° NNW
Cosmos 1464 Rocket 4.5 17:19:15 10° SSE 17:24:55 37° E 17:30:32 10° NNE
AQUARIUS 4.0 17:22:46 10° SSE 17:27:10 79° ENE 17:31:36 10° NNW
SL-12 R/B(2) 4.4 17:19:55 10° SSW 17:27:44 63° ESE 17:36:59 11° NE
Cosmos 540 Rocket 3.4 17:23:50 10° NNW 17:29:00 86° ENE 17:34:07 10° SSE
BREEZE-M DEB (TANK) 2.7 17:27:06 10° SW 17:29:31 47° SSE 17:32:21 20° E
Cosmos 1400 Rocket 3.8 17:28:24 10° SE 17:31:13 23° E 17:31:13 23° E
Cosmos 1975 Rocket 3.6 17:28:02 10° NNW 17:32:20 61° W 17:36:38 10° S
Spot 4 Rocket 4.2 17:28:19 10° SE 17:33:09 47° ENE 17:38:02 10° N
Cosmos 1763 Rocket 3.7 17:29:14 10° NNW 17:34:28 75° WSW 17:39:35 10° SSE
Cosmos 1812 2.1 17:33:56 10° S 17:36:44 47° E 17:37:34 34° NE
Cosmos 1140 Rocket 4.0 17:36:40 10° SW 17:41:46 58° WNW 17:46:53 10° NNE
Cosmos 2151 Rocket 4.0 17:37:50 10° SSE 17:42:02 40° E 17:45:29 14° NNE
Cosmos 2058 2.7 17:38:27 10° N 17:42:24 64° ENE 17:46:21 10° SSE
SMAP 4.2 17:38:51 10° S 17:43:19 46° W 17:47:49 10° NNW
Cosmos 44 Rocket 3.4 17:39:54 10° SSW 17:44:33 54° ESE 17:47:06 26° ENE
SKYMED 2 3.7 17:45:23 13° NNE 17:49:12 51° E 17:53:26 10° S
Cosmos 1943 Rocket 2.1 17:44:00 10° SSW 17:49:35 76° ESE 17:54:09 16° NNE
Helios 1A Rocket 3.7 17:51:57 26° SE 17:51:57 26° SE 17:53:53 10° SSE
Okean 1 Rocket 3.7 17:48:01 10° SSE 17:51:43 32° E 17:51:43 32° E
CZ-2D R/B 3.3 17:48:03 10° SSE 17:52:11 72° ENE 17:56:24 10° N
SJ-7 4.1 17:48:35 10° SSE 17:52:11 55° ENE 17:55:49 10° N
IRAS Rocket 4.1 17:47:09 10° SSE 17:52:40 68° ENE 17:58:10 10° NNW
Sich 1 Rocket 4.2 17:48:52 10° SSE 17:52:59 35° E 17:53:29 34° ENE
Cosmos 2082 Rocket 2.1 17:47:30 10° NNW 17:53:10 85° ENE 17:58:47 10° SSE
PSLV R/B 3.4 17:49:51 10° SSE 17:53:47 53° ENE 17:57:43 10° N
Cosmos 2026 Rocket 4.3 17:51:46 10° N 17:57:29 41° ENE 18:03:14 10° SE
Cosmos 1072 Rocket 4.4 17:51:54 10° S 17:57:58 67° E 18:04:02 10° NNE
Cosmos 2278 Rocket 2.1 17:52:43 10° SSW 17:58:23 83° ESE 18:02:47 17° NNE
NOAA 6 4.1 17:55:34 10° SE 18:00:33 53° ENE 18:05:33 10° N
BREEZE-M DEB (TANK) 3.5 17:58:28 10° SW 18:01:17 52° SSE 18:03:16 33° E
Aureole 3 Rocket 2.3 17:58:25 10° SSW 18:01:26 76° WNW 18:03:12 24° N
BREEZE-M DEB (TANK) 2.9 17:59:34 10° WSW 18:02:10 76° SSE 18:04:09 35° ENE
SL-16 R/B 4.1 17:59:44 10° N 18:05:14 33° WNW 18:10:42 10° WSW
Geosat 4.0 18:04:10 31° ESE 18:06:25 56° NE 18:11:20 10° NNW
Cosmos 2251 Rocket 3.4 18:03:56 10° SSW 18:09:12 77° ESE 18:12:38 23° NNE
YAOGAN 1 2.4 18:07:22 10° SSE 18:11:38 84° ENE 18:15:56 10° NNW
Cosmos 371 Rocket 3.5 18:08:15 10° S 18:12:49 46° ESE 18:12:52 46° ESE
Cosmos 304 Rocket 3.9 18:09:22 10° S 18:13:53 48° ESE 18:13:57 48° ESE
Cosmos 841 Rocket 3.4 18:08:57 10° NNW 18:14:13 70° ENE 18:17:15 25° SE
SJ 16-02 1.2 18:11:11 10° S 18:15:26 61° ESE 18:15:42 60° E
SL-19 R/B 4.0 18:10:40 10° SSE 18:15:53 89° ENE 18:21:10 10° NNW
Nadezhda 4 Rocket 4.0 18:13:20 10° N 18:19:40 87° W 18:25:54 10° S
CZ-4C R/B 3.8 18:15:35 10° WNW 18:19:55 25° N 18:22:35 19° NNE
ATLAS CENTAUR R/B 3.6 18:19:30 10° NNW 18:20:09 10° NNW 18:20:45 10° N
Cosmos 1862 3.5 18:18:28 10° NNW 18:22:04 62° W 18:25:39 10° S
Resurs 1-3 3.6 18:19:19 10° S 18:23:37 80° WSW 18:27:57 10° NNW
ATLAS 2AS CENTAUR R/B 2.9 18:17:27 10° NW 18:24:01 48° NNE 18:25:35 41° ENE
COSMOS 2406 3.1 18:20:13 10° NNW 18:25:57 85° ENE 18:29:07 28° SSE
Cosmos 1627 Rocket 4.4 18:22:02 10° N 18:28:07 63° ENE 18:34:14 10° SSE
Cosmos 1656 Rocket 4.2 18:24:24 10° S 18:28:32 39° SE 18:28:32 39° SE
Cosmos 2195 Rocket 4.4 18:27:12 10° N 18:33:34 83° E 18:39:55 10° S
Cosmos 1536 Rocket 4.3 18:29:49 10° NNW 18:34:10 53° W 18:38:26 10° S
Okean 2 Rocket 3.1 18:32:24 10° SSW 18:36:48 77° WNW 18:37:52 50° N
Cosmos 1190 Rocket 4.1 18:34:50 10° SSW 18:40:08 73° WNW 18:42:26 35° NNE
Cosmos 2344 3.8 18:34:23 10° NW 18:42:12 82° NE 18:47:32 32° SE
Cosmos 676 Rocket 3.8 18:37:43 10° SSW 18:43:00 78° ESE 18:43:16 76° ENE
Resurs 01 Rocket 3.0 18:46:22 28° N 18:46:22 28° N 18:48:31 10° N
Meteor 2-3 Rocket 3.6 18:39:44 10° NNW 18:45:29 87° W 18:49:59 17° S
Cosmos 2297 Rocket 4.3 18:46:51 10° N 18:48:17 12° N 18:48:17 12° N
ISS -1.6 18:48:29 10° W 18:50:07 26° W 18:50:07 26° W
Cosmos 1954 Rocket 4.2 18:47:50 10° SSW 18:53:05 70° WNW 18:54:18 51° N
COSMO-SKYMED 1 3.4 18:57:48 46° WNW 18:57:55 46° WNW 19:01:51 10° SW
USA 281 3.0 19:02:00 70° ESE 19:02:39 77° ENE 19:09:15 10° NNW
Cosmos 1943 Rocket 4.0 19:29:16 10° W 19:33:55 26° NW 19:35:40 22° NNW
Cosmos 2278 Rocket 4.1 19:38:34 10° W 19:43:09 25° NW 19:44:37 22° NNW
SJ 16-02 4.1 19:50:48 10° W 19:52:17 16° W 19:52:17 16° W
CZ-4C R/B 4.3 20:04:54 10° NW 20:07:32 22° NNW 20:07:32 22° NNW
ATLAS 2AS CENTAUR R/B 3.7 20:08:30 10° NW 20:13:01 41° WNW 20:13:01 41° WNW
